Vorticity
5 5 5 5 4 3 3 3 5 6 9 12 16 20 24 28 30 30 30 27 22 18 15 12 9 9 10 10 9 8 6 6 6 8 10 11 13 15 14 10 6 7 9 8 6 8 8 7 7 7 10 8 5 3 4 5 -6 5 23 -3 -30 -3 22 15 13 10 9 15 8 -3 1 8 4 5 9 7 5 2 5 5 4 4 3 5 3 2 4 3
6 6 5 4 3 3 3 3 5 8 11 14 19 24 28 31 31 31 31 30 29 27 26 23 19 14 10 9 10 10 7 6 4 4 6 8 11 12 15 15 12 9 9 10 9 8 8 6 7 7 9 9 7 4 1 7 -4 -15 14 27 -10 -26 -2 16 15 9 10 15 12 4 -1 6 8 6 7 9 9 3 3 5 3 4 3 4 5 4 4 3
6 6 5 4 3 3 3 4 6 10 14 18 23 28 30 30 29 29 28 28 29 30 31 31 31 27 20 15 11 11 10 9 6 4 5 5 7 9 10 12 14 14 10 11 11 9 9 6 6 7 9 10 8 6 3 5 3 -12 -10 15 14 -18 -32 -4 21 8 1 8 10 9 2 -0 4 5 8 7 6 4 4 4 2 4 7 6 5 4 3 3
6 5 5 3 3 3 3 5 9 13 17 22 27 30 30 31 30 27 22 21 20 23 27 31 36 36 33 29 21 17 12 10 8 5 6 5 5 6 7 7 10 15 13 12 13 11 9 8 6 6 8 10 8 6 7 4 2 1 -4 -1 9 4 -20 -22 7 13 4 6 7 12 12 4 -1 -1 5 6 5 7 6 3 4 6 6 6 5 5 3 3
6 5 4 3 3 3 3 6 11 17 21 26 27 26 25 29 30 22 13 15 19 20 22 28 36 40 39 38 33 29 21 14 14 10 5 6 7 5 3 4 7 11 13 12 15 15 10 9 6 5 7 9 9 7 7 5 2 3 3 4 7 14 10 -14 -9 13 12 3 2 12 14 8 6 5 2 0 3 10 9 5 7 9 5 4 4 4 4 3
6 5 3 3 3 3 4 8 15 21 24 25 22 16 12 18 25 23 21 25 28 21 19 27 33 34 35 37 38 38 33 23 21 21 15 9 7 8 4 3 4 6 10 10 12 16 12 10 8 6 7 7 9 8 8 5 5 7 -4 -5 4 13 23 6 -10 6 18 4 -4 12 17 5 2 8 6 1 3 4 5 5 5 9 9 8 6 4 4 4
6 5 4 3 3 4 5 10 18 23 25 22 16 9 5 10 16 28 41 36 27 21 18 24 24 22 25 28 33 38 39 32 23 21 24 21 10 8 7 3 5 5 6 7 10 16 15 12 9 8 6 6 10 9 9 4 3 13 1 -15 -10 5 20 18 -3 -10 9 12 -5 -3 8 12 4 1 3 0 3 2 -2 -0 1 4 6 8 7 5 4 4
5 4 4 3 4 4 6 12 20 24 25 18 10 5 3 11 11 24 46 32 15 18 18 20 19 18 20 20 25 32 37 37 33 23 21 29 22 12 9 4 5 5 4 5 6 11 16 14 10 10 7 4 8 9 10 6 3 11 11 -4 -10 -0 6 15 18 -5 -12 -0 1 -4 -7 3 5 2 8 1 -0 3 -4 -3 -1 -0 2 4 8 7 5 5
5 5 3 4 4 4 7 14 21 24 25 16 6 3 2 13 13 15 37 31 16 20 20 21 19 15 16 16 19 26 29 30 38 34 22 26 27 20 15 9 5 6 5 4 5 7 13 17 13 10 9 6 5 10 11 6 5 7 12 8 -5 1 0 -2 20 18 -4 -12 -9 1 2 3 1 -3 5 5 2 5 -0 1 2 -1 -0 -0 4 7 7 4
6 5 4 4 4 4 8 14 21 24 24 15 5 3 3 13 18 12 23 30 25 25 22 17 12 11 12 11 14 18 21 22 27 32 30 28 26 24 21 16 10 7 7 4 4 5 9 16 17 11 9 8 4 7 13 9 5 2 5 11 -5 -8 3 -6 2 18 17 10 -3 -5 4 9 8 3 2 0 -1 1 -1 -0 3 2 3 1 -1 1 5 8
6 5 4 4 4 5 9 14 22 25 22 15 6 5 6 12 22 16 11 18 20 19 16 10 8 8 5 4 7 9 11 16 20 24 32 32 30 30 25 22 16 10 10 5 3 5 5 12 17 14 9 9 5 3 13 14 9 2 -5 12 9 -14 -3 7 -0 5 10 16 14 1 -2 -3 0 10 14 9 0 -0 2 -1 1 2 0 2 2 -0 -0 3
6 5 5 4 5 6 10 15 20 25 22 14 7 6 7 11 23 21 9 7 9 9 10 7 7 7 6 9 11 10 10 14 17 19 26 29 29 32 27 24 21 15 14 8 4 5 4 9 15 16 11 9 6 1 11 15 9 8 -6 4 20 -7 -13 7 8 9 12 12 9 -1 -0 -5 -13 -7 5 18 15 5 5 4 5 5 2 3 3 3 4 0
6 6 5 4 5 5 11 16 19 24 22 15 9 7 7 10 22 26 12 6 6 5 6 5 6 6 8 13 10 9 13 15 17 18 23 25 25 29 29 26 24 19 17 13 8 6 5 7 11 15 14 10 7 0 6 15 11 8 -0 -3 9 3 -8 0 8 9 12 16 7 -4 2 -5 -19 -17 -11 13 28 13 2 2 5 6 5 9 4 -2 2 4
6 6 5 5 5 6 11 15 20 23 21 17 10 6 9 10 20 28 19 9 7 5 4 4 5 5 6 9 6 6 11 14 18 19 21 25 26 29 30 27 28 24 18 16 12 8 6 6 9 13 15 11 8 4 0 12 19 10 6 -1 -6 3 -0 -7 2 5 7 20 15 1 -0 -11 -17 -8 -8 -1 18 19 6 1 6 7 5 10 15 9 3 3
7 6 5 5 4 8 11 15 20 22 21 16 10 8 11 15 19 25 26 16 8 8 7 5 6 6 10 15 14 12 12 11 15 18 19 25 26 27 30 26 27 30 21 16 14 12 8 6 10 11 13 13 7 8 1 0 19 17 10 7 -6 -1 -2 -10 1 2 -2 14 22 16 12 5 1 4 4 -1 1 13 15 5 1 1 0 2 9 14 12 10
7 6 6 5 5 8 11 16 19 21 20 13 12 12 11 21 22 18 28 25 10 9 10 8 8 7 9 15 20 20 16 14 14 16 17 22 24 25 31 29 27 32 28 20 16 15 13 8 11 11 13 16 6 7 7 -3 7 17 16 14 5 1 -9 -12 2 -2 -12 1 13 21 26 21 17 12 10 8 -3 -1 12 11 7 6 4 0 -1 6 12 11
7 6 6 5 5 8 11 16 18 19 19 13 14 13 14 27 23 11 22 31 20 9 8 9 9 10 9 14 22 21 20 20 15 15 17 16 22 26 29 33 31 30 28 25 19 15 16 14 12 13 12 13 10 5 8 6 2 6 16 16 9 6 -7 -16 -4 -1 -3 6 -1 -3 15 20 19 19 13 10 2 -7 -4 -0 4 9 9 3 -3 -0 9 13
7 6 6 5 6 8 11 15 19 19 16 16 17 16 23 27 18 13 16 28 31 15 6 8 11 14 10 10 17 17 21 23 15 16 20 15 19 25 26 29 31 31 29 25 22 16 16 18 14 14 13 11 11 4 2 10 5 -0 9 15 12 8 -1 -11 -6 1 -1 4 -1 -17 -5 12 13 17 17 12 7 -4 -9 -6 -4 -2 2 10 10 -0 -4 0
7 6 6 6 5 7 11 14 18 19 15 20 23 20 25 21 16 22 17 21 33 20 9 11 14 16 11 10 12 13 17 21 18 16 19 17 16 22 26 27 28 31 32 26 24 20 14 18 18 12 12 10 9 8 5 4 8 10 5 7 17 16 8 -1 -3 13 12 3 9 -3 -16 -2 6 7 14 20 16 4 -4 1 5 1 -4 3 14 9 -3 -5
7 7 6 5 6 7 10 13 17 21 18 21 27 25 24 22 23 29 22 20 24 16 11 13 13 12 14 14 12 13 15 19 21 13 14 17 12 19 26 27 27 25 25 25 26 26 20 18 18 12 8 10 9 9 12 3 3 19 11 -4 8 20 18 4 -15 -3 20 14 14 16 -3 -4 7 -1 0 16 22 14 4 -1 1 4 2 0 8 12 4 3
7 7 6 5 6 7 9 13 19 22 20 22 30 31 28 27 27 26 21 18 17 12 11 13 15 19 26 24 19 20 18 19 18 10 13 12 8 19 23 25 32 24 20 27 25 25 29 23 18 17 12 12 13 9 12 6 -3 12 23 4 -3 14 19 6 -15 -25 -3 18 17 21 14 2 12 11 7 17 22 20 16 9 3 3 6 3 3 6 -2 -4
8 7 7 6 5 7 9 13 22 23 21 26 33 33 28 24 19 17 18 17 17 15 15 20 25 28 31 28 25 22 18 18 13 10 13 8 9 19 23 32 35 21 19 28 23 18 27 26 18 20 18 12 13 10 9 9 -0 2 21 20 -1 6 19 12 8 -1 -0 21 20 13 13 4 11 19 16 15 13 17 21 18 13 11 13 10 4 2 -0 -1
9 7 7 6 5 7 7 15 28 24 18 24 30 32 30 20 13 12 15 19 21 19 17 20 28 30 26 24 23 19 16 15 11 13 16 13 16 19 29 42 23 2 9 19 21 18 22 27 21 20 20 14 13 10 8 7 7 2 8 24 11 -1 19 18 12 21 22 23 23 18 16 12 17 20 16 15 14 18 20 22 23 14 7 8 8 6 4 3
8 8 7 6 6 6 6 16 28 22 14 16 17 24 30 25 19 13 8 11 17 21 18 15 23 27 24 22 23 20 14 14 17 15 15 17 15 19 37 37 4 -6 8 13 22 26 24 30 28 25 21 15 13 8 8 5 5 10 2 14 24 -1 3 13 1 9 20 13 14 22 19 13 18 24 18 8 9 13 7 8 21 21 13 9 10 13 11 8
8 8 8 6 7 7 6 16 27 23 13 9 6 10 19 22 24 24 20 18 13 13 15 15 19 19 19 19 18 19 13 16 22 10 13 19 12 26 36 16 0 7 14 16 25 27 27 27 23 27 23 14 15 8 7 5 -3 13 8 -0 20 2 -19 -1 -3 -10 7 16 12 7 6 5 9 19 20 9 10 20 15 9 13 19 26 27 21 19 17 14
8 8 8 7 6 6 6 12 27 28 10 4 5 4 8 11 15 20 23 25 16 13 19 18 17 16 16 16 14 19 15 15 16 9 20 18 10 36 33 8 12 12 11 23 25 19 23 25 17 22 24 13 15 10 5 9 -2 6 14 1 10 4 -19 -9 -2 -15 -10 9 21 11 -4 -3 1 1 3 10 17 21 19 12 5 2 10 20 22 20 19 19
8 8 9 9 7 6 6 9 27 31 9 4 9 5 7 9 11 11 8 12 11 15 25 25 24 21 19 20 17 14 9 8 11 14 26 20 15 29 14 9 20 3 7 27 22 16 20 27 22 16 23 20 15 12 3 6 5 4 12 11 9 5 -2 -3 2 11 3 -11 11 31 12 -4 2 3 1 4 7 8 7 -0 -4 -1 2 8 14 16 16 17
8 8 9 10 9 7 5 7 23 29 12 4 10 8 8 10 13 14 11 11 9 8 9 8 8 7 11 16 4 -3 6 16 19 17 27 31 23 11 -1 19 25 2 14 27 18 21 19 25 33 19 18 22 15 13 6 -0 7 9 6 10 7 -5 2 7 -4 15 32 6 -6 12 17 11 9 11 11 4 -8 -9 -3 -3 3 12 11 8 10 15 19 17
8 8 9 9 10 10 7 8 19 31 19 3 8 12 7 9 14 17 18 17 15 17 16 11 4 -1 9 16 6 7 20 25 24 22 26 26 13 5 11 30 24 7 23 28 11 13 12 15 31 27 22 24 17 15 14 2 5 12 6 12 17 -8 -13 -3 -22 -25 5 19 7 -10 -9 5 9 9 11 6 -2 -3 -1 1 5 8 9 12 12 13 19 20
7 7 9 9 10 10 9 9 14 32 29 5 5 12 6 7 12 16 22 18 16 24 29 26 22 18 22 26 25 25 24 23 26 23 15 7 12 26 23 12 14 22 31 23 -2 2 19 18 20 26 21 18 16 13 14 9 7 10 2 4 19 11 -4 -7 -15 -26 -28 -8 18 21 11 7 6 9 9 7 10 14 15 16 12 2 -3 0 0 0 2 1
7 7 8 9 10 9 9 9 8 27 34 11 3 10 7 8 11 15 24 25 20 17 18 21 26 30 30 34 35 25 25 35 26 7 -4 -3 16 36 22 -0 10 31 29 3 -16 6 30 21 18 30 26 18 15 11 10 12 13 10 3 -2 1 9 10 -0 -2 1 -13 -24 -18 -4 17 26 17 11 6 4 6 5 6 13 19 16 11 6 2 1 2 -2
7 6 7 8 11 11 10 9 8 22 33 21 10 8 5 7 12 16 20 28 29 20 17 17 17 17 18 29 29 14 27 34 5 -10 1 13 22 21 16 18 21 27 26 -4 -16 16 29 13 15 25 27 24 16 11 8 8 14 10 6 7 1 6 17 9 4 7 5 -1 -22 -40 -26 -4 9 18 19 9 3 3 4 9 20 25 24 21 17 12 12 12
7 6 6 7 9 11 11 9 9 15 23 28 23 8 -1 3 10 13 15 24 31 31 27 16 10 9 11 26 20 1 16 21 -1 -1 6 14 34 30 21 27 16 10 19 1 -9 18 23 11 19 22 23 24 16 15 7 2 14 12 7 10 1 0 12 14 15 12 8 13 6 -10 -23 -32 -25 -3 19 23 14 10 7 2 4 8 11 13 13 10 6 5
7 7 5 7 8 10 12 8 9 10 10 24 32 11 -4 2 6 10 17 19 17 21 16 6 11 13 10 24 16 -4 10 18 8 6 -11 -14 22 44 34 16 -3 2 22 12 2 21 21 8 16 21 20 17 16 22 11 -1 11 10 6 16 12 4 6 11 16 13 13 17 15 16 6 -12 -21 -28 -19 2 12 15 15 7 -4 -11 -10 -3 3 8 8 5
7 7 6 8 8 9 12 9 9 11 5 17 33 20 7 8 3 3 17 20 11 7 2 -2 9 16 14 19 6 -6 11 20 8 -2 -10 -6 13 36 44 23 3 17 33 18 2 10 11 6 17 21 17 13 14 25 21 6 10 10 2 5 13 14 7 9 15 10 11 14 12 20 18 9 4 -11 -25 -24 -17 -7 0 5 8 4 2 4 8 10 13 12
7 8 8 8 8 9 11 10 10 11 6 14 27 25 21 18 6 2 13 20 15 8 7 6 9 20 28 19 -3 -6 10 16 11 0 -4 5 10 19 37 36 23 23 23 13 4 -1 -8 -6 10 17 22 26 18 19 24 15 9 13 9 -4 -3 7 4 1 8 10 10 9 6 12 18 16 16 12 5 -3 -8 -6 -7 -9 -2 1 0 -4 -9 -9 -4 -2
8 10 9 7 8 9 9 11 12 9 7 12 15 17 24 25 16 10 11 18 19 13 14 15 11 17 27 17 1 8 12 6 11 10 -5 -6 5 13 23 32 36 35 29 21 15 12 4 -2 0 1 7 20 20 16 21 21 15 13 16 9 0 4 6 2 6 10 12 13 11 7 8 13 13 10 9 7 4 3 0 -6 -13 -18 -16 -15 -17 -18 -13 -11
10 10 10 8 9 9 9 11 11 8 10 11 8 9 18 24 22 18 13 13 16 15 17 18 14 14 17 11 6 13 14 3 4 12 6 2 8 8 7 14 23 33 44 39 19 15 18 10 3 1 -3 1 10 13 11 12 14 12 17 21 16 12 12 8 5 7 9 11 17 17 11 10 13 12 12 11 8 2 -8 -15 -17 -15 -9 -3 -2 -4 -5 -6
12 11 11 10 10 8 9 12 9 7 11 11 8 9 12 16 19 21 19 12 7 10 18 21 18 15 11 5 -0 3 10 6 3 9 11 11 9 1 2 9 8 10 29 40 28 22 30 27 13 13 20 23 22 20 22 22 14 7 7 9 11 10 10 9 4 2 5 6 9 12 10 8 9 10 12 14 16 14 6 -4 -8 -5 -2 2 5 5 5 5
13 13 12 10 11 10 9 11 8 8 10 7 7 11 11 11 13 16 21 19 10 6 14 22 22 19 15 5 -3 -2 5 8 9 10 8 9 8 2 4 7 7 8 11 15 16 15 25 30 14 6 17 27 21 15 25 33 27 24 21 13 13 12 5 7 10 9 8 6 8 10 9 9 8 7 11 15 16 18 18 14 8 4 1 4 7 8 11 13
15 14 13 11 11 11 11 10 9 9 9 6 8 10 10 10 10 11 15 21 20 12 10 18 26 27 20 8 1 1 2 5 10 9 6 6 3 1 1 -2 2 11 7 3 9 9 8 9 3 0 4 8 8 4 7 10 10 19 27 23 25 28 21 14 11 12 12 8 9 13 14 15 14 11 12 14 15 18 21 21 18 16 13 12 14 13 13 14
16 14 14 14 12 13 13 10 10 10 9 7 8 9 10 10 9 10 11 13 19 19 13 13 21 28 25 15 9 6 5 8 11 12 10 6 3 1 -4 -7 -4 -0 -3 -1 7 9 6 4 1 3 6 6 9 9 8 7 3 2 6 7 7 12 17 17 13 13 15 12 10 11 14 16 15 13 13 11 10 12 15 17 17 17 16 14 14 13 11 10
15 15 16 15 13 13 13 11 10 11 10 9 9 8 10 12 9 9 10 9 11 16 18 15 14 21 27 24 17 9 7 10 10 15 16 9 9 6 -6 -7 -4 -8 -6 -1 2 3 2 1 3 3 3 3 4 6 6 8 9 7 6 6 6 5 5 7 8 9 9 8 6 6 11 15 14 13 11 10 9 7 8 11 11 12 12 11 10 9 8 8
13 15 15 16 16 13 13 12 11 12 11 10 10 10 9 11 11 10 10 9 9 9 14 18 17 19 23 25 24 16 14 14 10 16 20 10 8 9 2 3 -0 -10 -9 -6 -5 2 -2 -7 -3 -1 -1 1 1 3 4 2 3 5 5 5 5 7 7 6 7 7 6 7 6 5 7 8 10 11 11 10 9 6 7 7 6 7 7 6 7 6 7 7
10 13 13 15 17 16 13 12 11 11 12 10 10 11 11 10 11 12 11 10 10 9 9 11 14 18 19 21 26 23 21 20 15 18 25 17 9 7 4 8 5 -4 -4 -7 -9 -2 -4 -6 -4 -7 -8 -5 -6 -6 -3 -2 -1 -2 -1 0 -0 0 1 1 2 2 2 4 4 4 6 4 3 4 6 7 7 6 7 7 6 7 6 6 6 5 6 6
7 10 12 12 14 16 15 13 11 10 11 11 10 10 12 12 10 11 12 10 10 10 10 8 7 11 13 15 19 22 23 25 20 18 23 23 20 14 7 7 5 -2 -4 -5 -8 -9 -11 -8 -4 -3 -2 -2 -4 -5 -7 -7 -5 -3 -2 -0 1 2 2 1 1 1 1 3 2 2 3 3 4 4 4 4 4 3 4 5 5 6 5 6 5 4 5 5
5 6 9 10 12 14 15 15 13 11 9 9 9 9 10 12 11 11 11 11 11 10 10 10 9 8 9 9 10 13 16 21 23 23 24 25 27 28 24 20 15 8 3 2 -2 -4 -4 -1 -0 1 6 7 6 7 6 3 3 5 6 6 6 7 7 6 6 7 7 7 7 7 7 5 5 7 8 9 8 8 8 7 7 7 7 7 7 7 7 7
6 5 6 8 9 11 13 15 15 14 12 10 10 9 8 9 10 10 10 11 11 11 10 10 11 10 10 9 10 9 9 10 14 18 21 23 25 29 31 31 30 27 23 20 17 15 16 17 16 12 12 13 12 11 10 11 11 9 8 9 10 11 11 11 10 10 11 11 9 9 10 9 7 8 11 12 11 10 9 8 8 8 9 10 10 11 11 12
5 5 5 6 7 7 9 11 13 15 15 14 12 11 9 8 9 8 9 10 9 10 11 10 9 10 10 10 10 10 10 9 8 8 11 14 16 20 24 27 30 33 33 31 31 30 28 27 27 23 19 18 18 16 15 15 16 17 17 17 16 15 15 15 15 15 16 17 18 18 18 20 20 19 19 18 18 18 18 19 19 19 20 20 20 21 21 21
5 5 5 5 6 6 6 7 9 11 13 15 15 14 12 10 10 8 8 9 9 8 9 9 8 9 9 9 10 10 10 11 11 10 9 8 7 9 11 13 16 21 24 26 26 28 29 30 31 30 29 28 28 29 30 29 28 28 27 26 25 24 24 24 24 25 24 23 24 24 25 26 24 22 20 19 19 20 20 20 19 18 18 17 16 15 14 13
6 6 5 4 4 5 6 6 7 8 10 12 13 15 15 13 12 11 10 10 9 8 8 8 8 8 8 8 8 8 8 9 10 11 12 11 10 9 8 8 7 7 8 9 11 12 12 14 15 16 17 17 17 17 17 18 18 17 15 14 14 15 16 16 14 13 12 12 11 11 11 10 9 8 8 7 8 7 7 7 6 6 6 6 6 6 6 6
7 6 6 6 4 5 5 6 6 6 7 9 10 11 13 14 14 13 13 12 11 10 9 9 9 10 11 11 10 9 9 9 9 9 10 11 12 12 12 10 9 9 8 6 6 7 6 6 6 6 6 6 6 6 6 6 6 5 4 6 7 6 6 5 6 5 4 4 4 5 5 5 5 5 5 5 5 5 5 6 6 7 7 8 9 10 9 9
Height
5707 5704 5700 5697 5693 5690 5686 5681 5677 5673 5668 5663 5657 5652 5646 5641 5637 5634 5631 5629 5628 5628 5628 5630 5632 5634 5637 5640 5643 5645 5648 5653 5656 5661 5665 5666 5669 5675 5681 5686 5691 5694 5699 5707 5713 5717 5721 5725 5730 5733 5738 5742 5748 5754 5758 5762 5765 5766 5769 5773 5780 5786 5789 5793 5796 5798 5802 5803 5805 5809 5810 5810 5812 5815 5817 5818 5819 5821 5823 5825 5826 5828 5830 5832 5833 5834 5834 5835
5703 5699 5696 5692 5688 5684 5680 5675 5670 5665 5659 5653 5647 5641 5636 5631 5627 5623 5620 5618 5616 5616 5616 5617 5619 5622 5625 5628 5631 5634 5639 5643 5648 5653 5654 5657 5663 5669 5674 5679 5682 5685 5692 5699 5705 5710 5715 5719 5723 5727 5731 5736 5742 5748 5752 5755 5758 5762 5764 5769 5778 5786 5789 5791 5793 5795 5797 5799 5801 5805 5807 5807 5809 5813 5815 5816 5817 5819 5821 5822 5822 5825 5828 5830 5831 5832 5832 5833
5698 5695 5691 5687 5683 5678 5673 5668 5663 5657 5650 5644 5638 5632 5626 5622 5618 5614 5611 5609 5607 5606 5605 5605 5607 5610 5613 5616 5619 5623 5629 5634 5640 5644 5645 5650 5656 5660 5666 5671 5673 5677 5685 5691 5697 5703 5708 5712 5716 5720 5724 5730 5737 5742 5746 5750 5754 5758 5760 5766 5776 5783 5785 5787 5789 5790 5792 5795 5798 5801 5803 5804 5806 5810 5811 5812 5815 5816 5816 5817 5820 5824 5827 5828 5829 5829 5830 5831
5694 5690 5686 5682 5677 5672 5667 5662 5656 5649 5642 5635 5629 5624 5619 5614 5611 5607 5604 5602 5600 5598 5597 5596 5597 5599 5602 5604 5608 5612 5618 5625 5631 5635 5638 5642 5646 5652 5659 5662 5664 5669 5677 5683 5689 5695 5701 5706 5709 5713 5717 5724 5731 5736 5740 5745 5751 5754 5757 5765 5773 5777 5780 5784 5785 5786 5789 5792 5795 5798 5800 5800 5803 5807 5806 5809 5812 5812 5811 5814 5819 5823 5825 5825 5826 5827 5828 5829
5690 5686 5682 5677 5672 5667 5662 5656 5649 5642 5635 5628 5623 5618 5613 5609 5605 5601 5598 5595 5593 5591 5590 5589 5589 5590 5592 5594 5597 5602 5607 5616 5623 5626 5629 5632 5637 5644 5649 5652 5656 5661 5669 5676 5681 5687 5694 5698 5703 5707 5712 5719 5726 5730 5735 5742 5747 5749 5755 5763 5768 5772 5776 5780 5782 5783 5786 5789 5792 5795 5796 5797 5800 5802 5802 5806 5808 5807 5809 5813 5817 5820 5822 5822 5823 5825 5826 5827
5686 5682 5678 5672 5667 5662 5656 5649 5642 5635 5629 5623 5618 5614 5609 5605 5600 5596 5592 5589 5587 5585 5584 5584 5583 5584 5585 5586 5589 5593 5599 5609 5614 5614 5617 5622 5628 5633 5638 5645 5649 5654 5661 5669 5674 5680 5687 5692 5696 5702 5708 5714 5720 5725 5732 5738 5741 5745 5752 5758 5764 5769 5772 5775 5778 5780 5783 5786 5790 5791 5792 5794 5796 5797 5800 5803 5803 5804 5808 5812 5814 5816 5819 5820 5821 5822 5823 5825
5682 5678 5673 5668 5662 5657 5650 5644 5636 5630 5623 5618 5613 5609 5605 5601 5596 5591 5586 5583 5582 5581 5580 5580 5579 5580 5580 5581 5584 5586 5592 5600 5601 5602 5607 5612 5617 5623 5630 5637 5641 5647 5655 5662 5667 5673 5679 5685 5690 5696 5703 5708 5715 5722 5728 5733 5737 5741 5748 5754 5761 5766 5768 5772 5774 5776 5779 5783 5785 5786 5788 5791 5793 5794 5796 5799 5799 5802 5806 5810 5811 5813 5815 5817 5818 5820 5821 5822
5679 5674 5669 5663 5658 5652 5645 5638 5631 5625 5619 5614 5609 5605 5601 5597 5592 5587 5582 5579 5578 5577 5577 5576 5576 5577 5577 5578 5580 5582 5587 5590 5589 5592 5598 5602 5608 5615 5622 5628 5634 5640 5647 5654 5661 5666 5672 5679 5685 5692 5698 5703 5710 5716 5721 5727 5732 5737 5744 5752 5757 5761 5765 5768 5769 5771 5775 5778 5780 5783 5785 5788 5789 5791 5794 5796 5797 5800 5804 5807 5807 5809 5812 5813 5815 5817 5818 5820
5675 5670 5665 5659 5653 5647 5641 5634 5627 5621 5615 5610 5606 5601 5597 5593 5589 5584 5579 5577 5575 5574 5574 5573 5574 5574 5574 5575 5576 5579 5582 5582 5581 5584 5590 5594 5600 5607 5613 5619 5626 5633 5640 5648 5655 5660 5667 5675 5682 5687 5692 5699 5704 5709 5715 5720 5726 5733 5742 5747 5751 5756 5760 5762 5763 5766 5770 5773 5777 5779 5782 5784 5787 5789 5792 5794 5796 5797 5801 5804 5804 5806 5808 5810 5812 5813 5815 5817
5671 5666 5661 5655 5649 5643 5636 5629 5623 5616 5611 5606 5602 5598 5594 5589 5585 5581 5577 5575 5573 5572 5571 5571 5572 5571 5572 5572 5574 5578 5577 5575 5575 5578 5583 5588 5593 5599 5605 5611 5619 5626 5633 5641 5648 5655 5663 5671 5677 5681 5685 5691 5696 5703 5710 5715 5722 5729 5736 5741 5746 5751 5755 5756 5757 5761 5765 5769 5774 5776 5778 5781 5783 5786 5789 5791 5792 5794 5797 5800 5801 5803 5804 5807 5808 5810 5813 5813
5668 5663 5657 5651 5645 5639 5632 5625 5618 5612 5607 5602 5598 5594 5590 5586 5582 5579 5576 5573 5571 5570 5570 5569 5569 5569 5570 5570 5573 5574 5570 5570 5572 5574 5577 5581 5587 5593 5598 5603 5611 5619 5626 5634 5642 5650 5658 5664 5670 5673 5677 5684 5692 5700 5705 5711 5718 5724 5730 5735 5740 5745 5749 5751 5753 5757 5760 5765 5770 5773 5774 5776 5779 5783 5787 5788 5789 5792 5794 5796 5798 5799 5801 5803 5804 5807 5809 5810
5665 5660 5654 5648 5642 5635 5628 5621 5614 5609 5604 5599 5595 5591 5587 5583 5579 5576 5574 5571 5569 5568 5568 5567 5567 5567 5567 5568 5570 5568 5565 5567 5569 5570 5573 5576 5581 5585 5590 5597 5604 5612 5619 5628 5636 5644 5652 5658 5662 5665 5672 5681 5689 5695 5699 5706 5713 5719 5724 5730 5736 5740 5742 5746 5750 5753 5757 5761 5766 5769 5769 5773 5777 5782 5786 5786 5787 5791 5792 5793 5795 5796 5798 5799 5800 5803 5805 5806
5662 5656 5651 5645 5638 5632 5625 5617 5611 5605 5600 5596 5592 5587 5583 5580 5576 5573 5571 5569 5567 5566 5565 5565 5564 5564 5564 5566 5566 5563 5562 5564 5565 5567 5569 5571 5575 5579 5584 5591 5597 5605 5613 5622 5630 5638 5645 5650 5655 5660 5669 5676 5682 5688 5693 5700 5707 5714 5719 5725 5731 5732 5735 5742 5746 5749 5753 5757 5762 5764 5766 5771 5776 5779 5783 5784 5784 5787 5788 5789 5791 5793 5795 5795 5796 5798 5800 5802
5659 5654 5648 5642 5635 5629 5621 5614 5608 5602 5597 5593 5588 5584 5580 5576 5572 5569 5568 5566 5565 5564 5563 5562 5561 5561 5561 5563 5563 5560 5560 5561 5562 5564 5564 5566 5570 5574 5579 5585 5591 5598 5606 5615 5623 5630 5637 5643 5650 5656 5664 5670 5677 5683 5688 5694 5701 5708 5714 5720 5724 5726 5733 5740 5742 5746 5750 5753 5758 5761 5764 5768 5771 5775 5779 5781 5781 5782 5784 5785 5787 5789 5791 5791 5792 5793 5794 5797
5656 5651 5645 5639 5633 5626 5619 5612 5606 5600 5594 5590 5585 5581 5577 5573 5569 5566 5564 5563 5561 5560 5560 5559 5558 5558 5558 5559 5559 5557 5557 5558 5559 5560 5561 5563 5566 5569 5573 5579 5586 5592 5600 5609 5616 5623 5631 5638 5645 5651 5658 5666 5672 5677 5683 5690 5696 5703 5708 5713 5718 5724 5732 5735 5736 5743 5748 5751 5755 5757 5761 5764 5766 5770 5775 5777 5778 5779 5780 5782 5783 5785 5786 5787 5788 5787 5787 5791
5654 5649 5643 5637 5630 5624 5617 5610 5603 5597 5592 5587 5582 5577 5573 5569 5566 5563 5560 5559 5558 5557 5557 5556 5555 5554 5554 5555 5555 5554 5554 5555 5555 5557 5558 5560 5562 5565 5569 5575 5581 5586 5595 5603 5610 5618 5626 5633 5639 5646 5654 5661 5665 5671 5679 5685 5690 5698 5703 5709 5716 5723 5728 5730 5733 5741 5745 5748 5751 5754 5759 5760 5762 5767 5770 5772 5775 5776 5777 5779 5780 5780 5780 5781 5783 5781 5783 5789
5652 5647 5641 5635 5628 5622 5615 5608 5601 5595 5589 5584 5579 5574 5570 5566 5562 5560 5557 5555 5554 5554 5554 5553 5552 5551 5551 5552 5551 5551 5551 5552 5552 5554 5556 5557 5560 5562 5566 5570 5575 5581 5588 5596 5604 5612 5620 5626 5632 5640 5648 5653 5660 5667 5672 5676 5683 5692 5699 5706 5714 5720 5724 5727 5731 5737 5740 5744 5748 5752 5755 5756 5759 5763 5764 5768 5771 5772 5773 5774 5774 5774 5774 5776 5777 5777 5780 5785
5650 5645 5639 5633 5627 5620 5613 5606 5599 5593 5587 5581 5576 5571 5566 5562 5559 5557 5554 5552 5551 5551 5551 5550 5549 5549 5548 5549 5549 5548 5549 5549 5550 5552 5553 5555 5557 5560 5563 5566 5570 5575 5582 5590 5599 5606 5613 5619 5625 5634 5641 5647 5654 5660 5665 5673 5684 5693 5699 5705 5711 5716 5721 5725 5731 5736 5738 5742 5746 5749 5752 5753 5757 5759 5760 5763 5766 5767 5768 5768 5767 5767 5770 5772 5773 5774 5776 5779
5649 5644 5638 5632 5626 5619 5612 5605 5598 5591 5584 5578 5573 5567 5563 5559 5556 5554 5552 5550 5549 5549 5549 5548 5547 5547 5546 5546 5546 5546 5546 5547 5548 5550 5551 5553 5556 5558 5561 5564 5567 5572 5578 5586 5594 5601 5607 5613 5619 5626 5633 5641 5649 5657 5667 5679 5688 5694 5699 5705 5709 5714 5719 5725 5730 5734 5737 5741 5743 5747 5751 5752 5753 5756 5757 5759 5761 5762 5763 5762 5760 5763 5768 5770 5769 5769 5772 5775
5648 5642 5637 5631 5625 5618 5611 5604 5596 5590 5583 5576 5570 5565 5561 5557 5554 5552 5550 5549 5548 5547 5547 5546 5545 5544 5543 5543 5543 5544 5544 5545 5546 5548 5549 5551 5553 5556 5559 5562 5565 5569 5574 5583 5590 5596 5602 5607 5613 5623 5633 5643 5652 5661 5672 5680 5685 5689 5694 5699 5704 5711 5717 5722 5726 5729 5734 5737 5740 5744 5749 5750 5751 5753 5755 5755 5755 5756 5755 5754 5756 5761 5764 5765 5765 5765 5768 5773
5646 5641 5636 5630 5624 5617 5610 5603 5595 5588 5582 5575 5568 5563 5559 5555 5553 5551 5549 5548 5547 5546 5545 5544 5543 5541 5540 5540 5541 5542 5543 5544 5545 5547 5548 5549 5551 5554 5557 5559 5563 5568 5574 5581 5587 5592 5597 5603 5613 5626 5637 5646 5654 5662 5670 5675 5680 5684 5689 5694 5700 5707 5713 5718 5722 5727 5731 5733 5737 5741 5745 5749 5750 5749 5749 5749 5749 5748 5747 5748 5752 5757 5759 5759 5760 5763 5768 5771
5645 5640 5635 5629 5623 5617 5610 5602 5595 5588 5581 5575 5569 5563 5559 5555 5553 5551 5549 5548 5546 5545 5544 5542 5540 5539 5538 5538 5539 5540 5542 5543 5544 5545 5547 5548 5550 5551 5554 5558 5562 5569 5574 5578 5583 5589 5593 5601 5615 5628 5636 5643 5650 5657 5664 5670 5676 5681 5686 5692 5698 5705 5710 5716 5721 5725 5728 5730 5734 5738 5742 5747 5747 5743 5743 5743 5743 5744 5742 5743 5747 5751 5752 5754 5757 5761 5766 5769
5645 5640 5635 5629 5623 5616 5610 5603 5595 5588 5583 5577 5570 5564 5560 5557 5554 5552 5550 5548 5546 5544 5542 5541 5539 5538 5537 5538 5538 5540 5541 5543 5544 5545 5547 5548 5549 5551 5554 5558 5562 5567 5572 5575 5580 5586 5593 5605 5618 5626 5632 5638 5644 5651 5659 5666 5671 5678 5684 5689 5696 5703 5709 5714 5718 5723 5726 5728 5731 5734 5739 5743 5741 5738 5738 5738 5738 5740 5738 5738 5741 5745 5748 5751 5754 5758 5762 5763
5644 5639 5634 5629 5623 5616 5610 5603 5596 5591 5586 5578 5572 5567 5562 5558 5555 5553 5550 5548 5546 5544 5542 5541 5540 5538 5538 5538 5539 5540 5541 5543 5544 5545 5547 5548 5551 5553 5555 5558 5563 5568 5572 5576 5581 5587 5596 5607 5616 5621 5627 5632 5639 5647 5655 5662 5668 5675 5682 5687 5694 5701 5706 5710 5716 5720 5723 5725 5727 5730 5734 5737 5734 5732 5733 5732 5733 5734 5734 5734 5736 5740 5744 5747 5751 5753 5755 5757
5644 5639 5634 5629 5623 5617 5611 5604 5597 5592 5586 5580 5575 5570 5565 5561 5557 5554 5551 5549 5547 5545 5543 5542 5541 5540 5539 5539 5540 5541 5542 5544 5544 5545 5547 5549 5552 5554 5557 5560 5565 5570 5573 5577 5582 5588 5596 5603 5608 5615 5622 5628 5636 5644 5652 5660 5666 5673 5679 5686 5692 5699 5703 5707 5712 5715 5718 5720 5723 5726 5729 5729 5727 5727 5727 5728 5728 5730 5731 5732 5734 5736 5740 5744 5747 5748 5750 5752
5644 5639 5634 5629 5623 5617 5611 5605 5598 5592 5587 5583 5578 5573 5568 5564 5560 5556 5554 5551 5548 5546 5545 5543 5542 5541 5541 5541 5542 5543 5544 5545 5546 5547 5548 5550 5553 5556 5559 5564 5567 5571 5575 5579 5584 5590 5596 5600 5605 5613 5620 5627 5635 5642 5651 5658 5664 5671 5677 5683 5690 5695 5700 5705 5708 5711 5713 5716 5720 5723 5723 5722 5722 5723 5723 5725 5727 5727 5729 5731 5732 5734 5737 5739 5742 5743 5745 5747
5644 5639 5634 5629 5624 5618 5612 5606 5599 5594 5589 5585 5580 5575 5571 5567 5563 5559 5557 5554 5551 5549 5547 5545 5544 5543 5543 5544 5544 5545 5546 5547 5547 5549 5551 5553 5555 5558 5562 5567 5570 5573 5577 5581 5586 5591 5596 5601 5606 5612 5619 5626 5633 5641 5649 5656 5663 5669 5675 5682 5688 5692 5696 5702 5705 5707 5710 5714 5717 5719 5718 5718 5719 5718 5720 5722 5724 5725 5726 5728 5730 5732 5734 5736 5737 5739 5741 5742
5644 5639 5635 5630 5625 5619 5613 5607 5600 5595 5591 5587 5582 5578 5573 5569 5565 5562 5559 5557 5554 5552 5550 5548 5547 5546 5545 5546 5546 5547 5547 5548 5549 5551 5553 5556 5559 5561 5565 5569 5572 5575 5578 5583 5588 5592 5597 5603 5609 5614 5619 5626 5634 5643 5650 5656 5661 5667 5674 5680 5685 5689 5693 5697 5701 5704 5707 5710 5713 5714 5714 5714 5714 5714 5715 5718 5720 5721 5723 5725 5727 5729 5730 5732 5734 5736 5737 5738
5644 5640 5635 5630 5626 5620 5615 5609 5603 5598 5593 5589 5585 5580 5576 5572 5568 5564 5561 5558 5555 5553 5552 5551 5549 5548 5548 5548 5548 5548 5549 5550 5551 5553 5556 5560 5562 5565 5568 5571 5574 5576 5579 5583 5589 5594 5599 5605 5610 5615 5621 5628 5637 5644 5650 5654 5659 5666 5674 5678 5682 5687 5690 5694 5697 5699 5703 5706 5708 5710 5710 5709 5709 5709 5711 5714 5716 5718 5720 5723 5725 5726 5727 5729 5731 5732 5733 5734
5645 5640 5636 5631 5627 5622 5617 5612 5606 5600 5595 5591 5587 5582 5578 5575 5571 5568 5564 5560 5557 5555 5554 5552 5551 5550 5549 5549 5549 5550 5551 5552 5554 5556 5560 5564 5566 5568 5571 5574 5576 5578 5581 5585 5591 5597 5602 5607 5612 5616 5621 5629 5636 5643 5649 5652 5657 5665 5671 5675 5679 5683 5686 5690 5693 5695 5698 5702 5704 5705 5705 5705 5705 5705 5707 5711 5714 5716 5718 5720 5722 5723 5724 5726 5728 5729 5730 5730
5645 5641 5637 5632 5628 5624 5619 5614 5608 5602 5597 5593 5589 5585 5582 5579 5575 5571 5566 5562 5560 5559 5556 5555 5554 5553 5552 5551 5551 5553 5554 5555 5558 5561 5564 5568 5570 5571 5573 5576 5577 5580 5584 5589 5593 5599 5605 5609 5613 5618 5623 5629 5635 5642 5648 5652 5657 5664 5668 5671 5676 5679 5683 5686 5689 5691 5695 5697 5699 5700 5701 5702 5701 5701 5705 5710 5713 5714 5716 5716 5718 5720 5721 5722 5724 5725 5727 5727
5646 5642 5638 5634 5630 5625 5620 5616 5610 5605 5600 5596 5592 5588 5585 5583 5579 5573 5568 5565 5563 5562 5560 5559 5558 5557 5556 5556 5556 5558 5559 5560 5563 5566 5569 5572 5573 5575 5577 5578 5580 5583 5587 5591 5595 5601 5607 5611 5615 5620 5625 5630 5635 5640 5646 5651 5656 5661 5665 5669 5674 5677 5680 5682 5684 5688 5691 5693 5695 5697 5697 5698 5698 5699 5703 5707 5710 5712 5712 5713 5715 5716 5717 5719 5720 5722 5723 5724
5647 5643 5639 5635 5631 5627 5623 5618 5613 5609 5604 5598 5594 5590 5588 5586 5581 5576 5572 5569 5566 5565 5564 5563 5562 5561 5562 5562 5562 5564 5565 5566 5568 5569 5572 5574 5576 5578 5580 5582 5584 5587 5590 5594 5597 5602 5608 5613 5617 5622 5627 5632 5635 5639 5645 5650 5655 5660 5664 5668 5672 5675 5677 5679 5682 5686 5688 5690 5693 5694 5694 5695 5695 5697 5700 5704 5706 5707 5708 5710 5712 5713 5714 5716 5717 5719 5720 5721
5648 5644 5641 5637 5633 5629 5625 5621 5616 5612 5606 5601 5596 5593 5592 5589 5583 5580 5577 5574 5572 5570 5569 5568 5567 5566 5566 5566 5567 5568 5570 5570 5571 5573 5574 5576 5578 5580 5582 5585 5588 5590 5593 5597 5601 5605 5609 5613 5618 5623 5627 5631 5635 5641 5647 5651 5655 5659 5663 5667 5670 5673 5675 5678 5682 5684 5686 5689 5691 5690 5691 5692 5692 5696 5698 5700 5702 5703 5705 5707 5709 5710 5711 5712 5714 5715 5717 5718
5649 5645 5642 5638 5635 5631 5627 5623 5619 5614 5610 5604 5600 5597 5596 5591 5587 5585 5582 5579 5577 5576 5574 5573 5572 5572 5571 5570 5571 5573 5574 5575 5576 5577 5578 5579 5581 5583 5585 5588 5590 5593 5596 5600 5604 5607 5610 5614 5619 5623 5628 5632 5636 5642 5647 5651 5655 5658 5662 5665 5667 5670 5674 5677 5680 5682 5684 5687 5687 5687 5690 5690 5691 5695 5697 5698 5699 5700 5703 5705 5706 5708 5709 5710 5711 5711 5713 5714
5650 5647 5643 5640 5637 5633 5629 5625 5621 5617 5613 5608 5604 5601 5598 5594 5591 5590 5586 5583 5581 5580 5579 5578 5577 5577 5576 5576 5577 5577 5578 5580 5581 5582 5582 5584 5585 5587 5588 5590 5592 5595 5599 5603 5606 5610 5613 5616 5620 5625 5628 5632 5637 5641 5646 5650 5655 5658 5661 5663 5666 5670 5674 5677 5679 5680 5682 5684 5684 5686 5688 5689 5690 5692 5694 5696 5698 5700 5702 5704 5705 5705 5706 5706 5707 5707 5708 5709
5651 5648 5645 5642 5638 5635 5632 5628 5624 5620 5616 5612 5609 5605 5601 5597 5595 5593 5590 5587 5586 5585 5583 5581 5580 5581 5581 5582 5582 5582 5583 5584 5585 5586 5587 5588 5589 5591 5592 5594 5596 5598 5602 5605 5608 5612 5616 5618 5622 5627 5630 5633 5637 5641 5645 5650 5654 5657 5660 5663 5667 5670 5673 5676 5677 5679 5680 5681 5682 5684 5686 5687 5687 5689 5692 5694 5697 5699 5701 5702 5702 5702 5701 5702 5702 5702 5703 5704
5653 5650 5646 5643 5640 5637 5634 5630 5627 5623 5619 5616 5613 5609 5605 5601 5599 5597 5595 5592 5590 5589 5587 5585 5584 5585 5586 5587 5587 5587 5588 5589 5589 5590 5591 5592 5593 5595 5596 5598 5600 5602 5604 5607 5611 5615 5618 5620 5624 5629 5632 5635 5639 5643 5646 5649 5653 5656 5660 5664 5666 5669 5672 5674 5675 5677 5679 5679 5680 5681 5682 5682 5685 5689 5691 5693 5695 5698 5698 5697 5696 5696 5696 5697 5697 5697 5697 5698
5655 5651 5648 5645 5642 5639 5636 5632 5629 5626 5623 5620 5617 5613 5609 5606 5603 5601 5599 5597 5595 5593 5591 5589 5589 5589 5589 5591 5591 5592 5593 5593 5594 5594 5595 5596 5597 5598 5600 5602 5604 5606 5608 5610 5613 5617 5621 5623 5627 5631 5634 5637 5640 5644 5647 5650 5653 5656 5659 5662 5665 5669 5670 5672 5675 5677 5677 5677 5677 5677 5678 5679 5684 5688 5690 5692 5694 5694 5693 5692 5692 5692 5692 5692 5692 5692 5692 5692
5657 5654 5651 5647 5644 5641 5637 5634 5632 5629 5626 5623 5621 5617 5613 5611 5609 5606 5603 5601 5600 5599 5596 5594 5593 5594 5594 5594 5595 5596 5596 5597 5597 5598 5599 5600 5601 5603 5604 5605 5607 5609 5612 5614 5617 5620 5624 5626 5629 5632 5636 5639 5642 5645 5648 5651 5653 5656 5659 5661 5664 5667 5668 5671 5674 5674 5675 5676 5674 5674 5677 5680 5684 5687 5689 5690 5690 5688 5688 5690 5689 5689 5688 5687 5687 5687 5687 5688
5659 5656 5653 5649 5646 5643 5639 5637 5634 5632 5629 5627 5624 5620 5618 5616 5613 5611 5608 5606 5605 5603 5601 5599 5598 5598 5598 5598 5599 5599 5600 5600 5600 5601 5602 5604 5605 5607 5608 5610 5612 5614 5616 5618 5621 5624 5626 5630 5633 5635 5638 5641 5644 5647 5650 5652 5655 5657 5659 5661 5664 5665 5667 5670 5671 5672 5674 5675 5673 5672 5675 5679 5682 5685 5686 5687 5685 5684 5685 5686 5686 5686 5685 5684 5683 5683 5682 5682
5661 5658 5655 5652 5648 5645 5642 5640 5637 5635 5632 5630 5627 5624 5622 5620 5618 5615 5613 5612 5610 5608 5607 5605 5604 5603 5602 5602 5602 5602 5603 5604 5604 5604 5605 5607 5609 5611 5613 5614 5616 5618 5620 5622 5625 5628 5630 5633 5636 5638 5641 5643 5646 5649 5651 5654 5656 5658 5660 5662 5664 5665 5667 5669 5670 5672 5673 5673 5672 5672 5674 5677 5681 5682 5683 5683 5682 5682 5682 5682 5682 5682 5681 5680 5680 5679 5678 5678
5663 5661 5658 5655 5652 5648 5645 5643 5640 5638 5635 5633 5630 5628 5625 5623 5621 5620 5618 5616 5614 5613 5611 5610 5609 5608 5607 5607 5606 5606 5607 5607 5608 5608 5609 5610 5612 5614 5616 5618 5620 5622 5624 5626 5628 5631 5634 5636 5638 5640 5643 5645 5647 5650 5652 5654 5656 5658 5660 5661 5663 5664 5666 5667 5669 5671 5671 5671 5672 5672 5673 5677 5678 5678 5679 5679 5679 5679 5678 5678 5677 5676 5676 5676 5676 5675 5675 5674
5666 5663 5660 5658 5655 5652 5649 5646 5643 5641 5638 5635 5633 5631 5629 5627 5625 5623 5621 5620 5619 5617 5616 5615 5614 5613 5612 5612 5611 5611 5611 5611 5612 5612 5612 5613 5614 5616 5618 5621 5623 5624 5626 5628 5631 5633 5636 5638 5640 5642 5644 5646 5648 5650 5653 5654 5656 5658 5659 5661 5662 5663 5665 5665 5667 5668 5668 5669 5670 5671 5672 5675 5675 5674 5674 5675 5675 5675 5674 5673 5673 5672 5672 5671 5671 5670 5670 5669
5668 5665 5662 5660 5658 5655 5652 5650 5647 5644 5641 5638 5636 5634 5632 5630 5628 5626 5625 5624 5622 5621 5620 5619 5618 5617 5617 5616 5616 5616 5616 5615 5615 5615 5616 5616 5618 5619 5621 5623 5625 5627 5628 5630 5632 5634 5637 5639 5641 5643 5645 5647 5649 5650 5652 5654 5655 5657 5658 5660 5661 5662 5663 5664 5664 5666 5666 5667 5668 5669 5670 5672 5671 5670 5671 5671 5670 5669 5668 5668 5668 5668 5667 5666 5666 5665 5664 5663
5670 5667 5665 5663 5661 5658 5656 5653 5650 5647 5644 5642 5640 5637 5635 5633 5631 5630 5628 5627 5626 5625 5624 5623 5622 5621 5621 5620 5620 5620 5619 5619 5619 5619 5619 5620 5621 5622 5623 5625 5627 5629 5630 5632 5634 5636 5638 5639 5641 5643 5645 5647 5648 5649 5651 5653 5654 5655 5657 5658 5659 5660 5660 5661 5662 5663 5663 5664 5665 5665 5667 5668 5667 5667 5667 5666 5665 5665 5664 5664 5664 5663 5662 5661 5661 5660 5658 5658
5673 5670 5667 5665 5663 5661 5659 5656 5654 5651 5648 5646 5643 5641 5638 5636 5634 5633 5631 5630 5629 5628 5627 5626 5626 5625 5625 5624 5624 5623 5623 5623 5623 5623 5623 5624 5625 5625 5626 5627 5629 5630 5632 5633 5635 5637 5638 5640 5641 5643 5644 5646 5647 5648 5650 5651 5652 5653 5654 5655 5656 5657 5658 5658 5659 5659 5660 5661 5661 5662 5663 5663 5663 5663 5662 5661 5660 5660 5660 5659 5659 5659 5657 5656 5656 5655 5653 5652
5675 5672 5670 5668 5666 5663 5661 5659 5657 5655 5652 5649 5647 5645 5642 5640 5638 5636 5634 5633 5632 5631 5630 5629 5629 5628 5628 5628 5628 5627 5627 5627 5626 5627 5627 5627 5628 5629 5630 5630 5631 5632 5633 5635 5636 5637 5639 5640 5641 5643 5644 5645 5646 5647 5648 5649 5650 5651 5652 5653 5653 5654 5655 5655 5656 5656 5656 5657 5657 5658 5658 5659 5660 5659 5658 5657 5656 5656 5655 5654 5654 5654 5652 5651 5650 5649 5648 5647
5677 5674 5672 5670 5668 5666 5664 5662 5660 5658 5655 5653 5651 5648 5646 5644 5641 5639 5637 5636 5635 5634 5633 5632 5632 5631 5631 5631 5631 5630 5630 5630 5630 5630 5630 5631 5631 5632 5632 5633 5634 5634 5635 5636 5637 5638 5639 5640 5641 5642 5644 5644 5645 5646 5647 5648 5649 5649 5650 5650 5651 5651 5651 5652 5652 5653 5653 5653 5653 5653 5653 5654 5655 5654 5653 5653 5652 5651 5650 5650 5649 5649 5647 5646 5645 5644 5643 5641
5680 5677 5675 5673 5671 5668 5667 5665 5662 5660 5658 5656 5654 5652 5650 5648 5645 5643 5641 5639 5637 5636 5635 5635 5634 5634 5634 5633 5633 5633 5633 5633 5633 5633 5634 5634 5634 5634 5635 5635 5636 5636 5637 5638 5638 5639 5640 5641 5641 5642 5643 5644 5645 5645 5646 5647 5647 5648 5648 5648 5649 5649 5649 5650 5650 5650 5650 5649 5650 5650 5649 5650 5650 5650 5649 5648 5647 5647 5646 5646 5645 5644 5643 5642 5640 5639 5638 5636
5682 5680 5677 5675 5673 5671 5669 5667 5665 5663 5661 5659 5657 5655 5653 5651 5649 5647 5645 5643 5641 5639 5638 5637 5636 5636 5636 5635 5635 5635 5635 5635 5636 5636 5636 5636 5636 5637 5637 5637 5638 5638 5639 5639 5640 5640 5641 5641 5642 5642 5643 5643 5644 5645 5645 5646 5647 5647 5646 5646 5647 5647 5648 5648 5648 5648 5647 5647 5646 5647 5647 5647 5646 5646 5645 5644 5644 5643 5642 5641 5641 5640 5639 5638 5636 5634 5632 5630
5684 5682 5680 5677 5675 5673 5671 5669 5667 5665 5664 5662 5660 5658 5656 5655 5653 5651 5649 5647 5645 5643 5641 5640 5639 5638 5638 5637 5637 5637 5637 5637 5637 5637 5638 5638 5638 5639 5639 5639 5640 5640 5640 5640 5641 5641 5641 5642 5642 5643 5643 5643 5644 5644 5645 5645 5646 5645 5645 5645 5646 5646 5646 5646 5646 5645 5645 5644 5644 5644 5644 5643 5643 5642 5641 5641 5640 5639 5638 5637 5636 5635 5634 5633 5630 5629 5627 5625